#timestamp,LO_Frequency,Hit,StdDev 
1513958415.9,286047018.8,Y
1513958435.7,286047004.0,P
1513958455.5,286047005.5,N
1513958475.3,286047006.8,N
1513958495.2,286047005.9,N
1513958515.0,286047006.0,N
1513958515.9,286047006.0,N
1513958535.7,286047005.8,N
1513958555.6,286047002.9,N
1513958575.4,286047001.6,N
1513958595.2,286047001.0,N
1513958615.1,286046997.2,N
1513958616.0,286046997.2,N
1513958635.8,286047000.5,N
1513958655.6,286047001.1,N
1513958675.5,286046998.4,N
1513958695.3,286046997.1,N
1513958715.1,286046995.9,N
1513958735.9,286046992.0,N
1513958755.7,286046992.9,N
1513958775.5,286046993.0,N
1513958795.3,286046993.2,N
1513958815.2,286046994.7,N
1513958835.0,286046990.4,N
1513958835.9,286046990.4,N
1513958855.7,286046989.6,N
1513958875.6,286046987.9,N
1513958895.4,286046989.4,N
1513958915.2,286046986.4,N
1513958935.1,286046986.8,N
1513958936.0,286046986.8,N
1513958955.8,286046981.8,N
1513958975.6,286046983.2,N
1513958995.5,286046980.9,N
1513959015.3,286046986.8,N
1513959035.1,286046984.0,N
1513959055.9,286046982.8,N
1513959075.7,286046980.7,N
1513959095.5,286046979.1,Y
1513959115.4,286046989.6,P
1513959135.2,286046988.4,P
1513959155.0,286046985.1,P
1513959155.9,286046985.1,Y
1513959175.8,286046996.6,P
1513959195.6,286046999.4,N
1513959215.4,286046998.4,N
1513959235.3,286046997.0,N
1513959255.1,286046993.9,N
1513959256.0,286046993.9,N
1513959275.8,286046992.7,N
1513959295.6,286046993.9,N
1513959315.5,286046994.8,N
1513959335.3,286046994.4,N
1513959355.1,286046991.9,N
1513959375.9,286046992.8,N
1513959395.7,286046991.0,Y
1513959415.5,286046995.4,P
1513959435.4,286046996.4,P
1513959455.2,286046993.6,P
1513959475.0,286046994.5,Y
1513959476.0,286046994.5,P
1513959495.8,286046998.2,P
1513959515.6,286047004.1,N
1513959535.4,286047001.4,N
1513959555.3,286047000.9,N
1513959575.1,286046994.9,N
1513959595.8,286046996.1,N
1513959615.7,286046995.7,N
1513959635.5,286046993.0,N
1513959655.3,286046990.5,N
1513959675.2,286046996.3,N
1513959695.9,286046997.3,N
1513959715.7,286046995.6,N
1513959735.5,286046994.5,N
1513959755.4,286046994.7,N
1513959775.2,286046993.0,N
1513959795.0,286046995.6,N
1513959795.9,286046995.6,N
1513959815.8,286046993.5,N
1513959835.6,286046992.0,N
1513959855.4,286046992.4,N
1513959875.3,286046991.1,N
1513959895.1,286046989.5,Y
1513959915.8,286046996.4,P
1513959935.7,286046996.4,P
1513959955.5,286046994.7,P
1513959975.3,286046993.4,Y
1513959995.2,286046999.4,P
1513960015.9,286046997.5,N
1513960035.7,286046995.5,P
1513960055.6,286046998.9,N
1513960075.4,286046999.0,N
1513960095.2,286046999.6,N
1513960115.1,286046999.7,N
1513960116.0,286046999.7,N
1513960135.8,286046997.8,N
1513960155.6,286046998.1,N
1513960175.4,286047002.3,N
1513960195.3,286047002.6,N
1513960215.1,286046999.8,N
1513960235.8,286047000.1,N
1513960255.7,286047003.5,N
1513960275.5,286047009.2,Y
1513960295.3,286047014.8,P
1513960315.2,286047017.1,N
1513960335.0,286047013.1,N
1513960335.9,286047013.1,N
1513960355.7,286047016.3,N
1513960375.6,286047018.7,Y
1513960395.4,286047010.4,P
1513960415.2,286047009.4,P
1513960435.1,286047012.2,P
1513960436.0,286047012.2,Y
1513960455.8,286046998.7,P
1513960475.6,286047001.6,N
1513960495.5,286047002.0,N
1513960515.3,286047003.0,N
1513960535.1,286047004.3,N
1513960555.9,286047000.1,N
1513960575.7,286046997.4,N
1513960595.5,286046997.1,N
1513960615.4,286047001.5,N
1513960635.2,286047004.1,N
1513960655.0,286047003.9,N
1513960655.9,286047003.9,N
1513960675.8,286047001.5,N
1513960695.6,286047002.0,N
1513960715.4,286046997.2,N
1513960735.3,286047001.8,N
1513960755.1,286046997.2,N
1513960756.0,286046997.2,N
1513960775.8,286046995.4,N
1513960795.6,286046999.4,N
1513960815.5,286047001.2,N
1513960835.3,286046996.8,N
1513960855.1,286046996.8,N
1513960875.9,286046998.9,N
1513960895.7,286046997.2,N
1513960915.5,286047001.1,N
1513960935.4,286046997.8,N
1513960955.2,286046994.3,N
1513960975.0,286046994.7,N
1513960975.9,286046994.7,N
1513960995.8,286046990.9,Y
1513961015.6,286046991.4,P
1513961035.4,286046987.2,P
1513961055.3,286046985.3,N
1513961075.1,286046984.6,N
1513961076.0,286046984.6,N
1513961095.8,286046983.7,Y
1513961115.7,286046998.8,P
1513961135.5,286046998.6,N
1513961155.3,286047002.4,N
1513961175.2,286046999.6,N
1513961195.9,286046995.6,N
1513961215.7,286046994.2,N
1513961235.6,286046990.8,N
1513961255.4,286046993.1,N
1513961275.2,286046988.9,N
1513961295.0,286046987.0,N
1513961295.9,286046987.0,N
1513961315.8,286046990.2,N
1513961335.6,286046988.9,N
1513961355.4,286046992.2,N
1513961375.3,286046993.3,N
1513961395.1,286046996.0,N
1513961415.8,286046996.1,N
1513961435.7,286046995.1,N
1513961455.5,286046996.2,N
1513961475.3,286046993.3,N
1513961495.2,286046999.4,N
1513961515.9,286046998.3,N
1513961535.7,286046998.5,N
1513961555.6,286046995.5,N
1513961575.4,286046995.9,N
1513961595.2,286046999.5,N
1513961615.0,286046999.0,N
1513961616.0,286046999.0,N
1513961635.8,286046997.3,N
1513961655.6,286046994.9,N
1513961675.4,286046995.9,N
1513961695.3,286046993.8,N
1513961715.1,286046992.9,N
1513961735.8,286046994.2,N
1513961755.7,286046993.4,N
1513961775.5,286046990.6,N
1513961795.3,286046992.8,N
1513961815.2,286046993.0,N
1513961835.9,286046985.3,Y
1513961855.7,286046993.1,P
1513961875.6,286046995.8,P
1513961895.4,286046999.0,N
1513961915.2,286046999.8,N
1513961935.1,286047000.1,N
1513961936.0,286047000.1,N
1513961955.8,286046999.5,N
1513961975.6,286046996.7,N
1513961995.5,286047000.9,N
